SCP
-0 -1 -1 -0 -0 -0 -0 -1 -0 -0 -0 -0 -0 -0 -0 -0 -0 0 0 0 0 0 0 -0 0 0 0 -0 0 0 -0 0 0 0 0 0 0 0 0 0 0 0 0
-0 -1 -1 -0 -0 -0 -0 -1 -1 -1 -0 -0 -0 -0 -0 -0 -0 0 0 0 0 0 0 -0 -0 0 0 0 0 0 0 0 0 0 0 0 0 0 0 0 -0 0 0
-0 -0 -0 -1 -0 -0 -0 -0 -1 -1 -1 -0 -0 -0 -0 -0 -0 0 0 0 0 0 0 -0 -0 0 0 0 0 0 0 0 0 0 0 0 0 0 0 0 0 0 0
-0 -0 -0 -0 -0 -0 -0 -1 -1 -1 -1 -0 -0 -0 -0 -0 0 0 0 0 0 0 0 -0 -0 -0 -0 0 0 0 0 0 0 0 0 0 0 0 0 0 0 0 0
0 -0 -0 -0 -0 -0 -0 -0 -0 -1 -1 -0 -0 -0 -0 -0 0 0 0 0 0 0 -0 -0 -0 -0 -0 0 0 0 0 0 0 0 0 0 0 0 0 0 0 0 0
0 0 -0 0 0 -0 -0 -0 -0 -0 -0 -0 -0 -0 -0 -0 0 0 0 0 0 0 -0 -0 -0 -0 0 0 0 0 0 0 0 -0 0 0 0 0 0 0 0 0 0
0 0 0 0 0 0 0 0 0 0 -0 -0 -0 -0 -0 -0 0 0 0 0 0 0 0 0 0 0 0 0 0 0 0 0 -0 0 0 0 0 0 0 0 0 0 0
0 0 0 0 1 0 0 0 0 0 0 -0 -0 0 0 0 0 0 0 -0 -0 -0 -0 -0 -0 0 0 0 0 0 -0 0 -0 0 0 0 0 0 0 0 1 1 0
0 0 1 0 0 1 1 1 0 0 0 0 -0 -0 -0 -0 -0 -0 -0 -0 -0 -0 -0 -0 -0 0 0 0 0 0 0 0 -0 0 0 0 0 0 0 0 0 1 1
0 0 0 1 0 0 0 1 0 0 0 0 -0 -0 -0 -0 -0 -0 -0 -0 -0 -0 -0 -0 -0 0 0 0 0 0 -0 -0 0 -0 0 0 0 0 0 0 0 1 1
0 0 0 0 0 0 0 0 0 0 0 0 0 -0 -0 -0 -0 -0 -0 0 -0 -0 0 -0 -0 0 0 0 0 0 0 0 0 0 -0 0 0 0 0 0 0 1 1
0 0 0 0 0 0 0 1 0 0 0 0 -0 -0 -0 -0 -0 -0 -0 0 0 0 0 -0 -0 -0 0 -0 0 0 0 0 0 0 -0 0 0 0 0 0 0 0 1
0 0 0 1 1 0 0 1 1 0 0 0 0 0 0 0 -0 -0 -0 0 0 0 0 0 0 0 -0 -0 -0 -0 -0 -0 -0 -0 0 0 0 0 0 0 0 0 1
0 0 1 1 2 1 1 1 1 1 0 0 0 0 1 0 0 0 0 0 0 0 0 0 0 0 0 0 -0 -0 -0 -0 -0 0 0 0 0 0 0 0 0 0 1
0 0 0 1 2 4 3 2 2 2 1 1 1 1 1 0 1 0 0 0 0 0 0 0 0 0 0 0 0 0 0 0 0 0 0 0 0 0 0 0 0 0 1
0 0 1 1 2 3 3 5 4 4 2 2 1 1 2 1 1 0 1 0 0 0 0 0 0 0 0 0 0 0 0 0 0 0 0 0 0 0 0 0 0 0 1
0 1 1 1 1 2 2 3 4 2 2 1 2 4 3 3 2 1 1 1 0 0 0 0 0 0 0 0 0 0 0 0 0 0 0 0 0 0 0 0 0 0 0
0 0 1 1 1 1 2 2 3 2 2 2 2 2 3 3 4 2 1 1 1 1 0 0 0 0 0 0 1 1 1 1 0 0 0 0 0 0 0 0 -0 -0 -0
0 0 0 1 1 1 2 2 2 3 2 2 2 2 3 3 3 4 2 2 2 1 1 0 0 0 0 1 0 1 1 1 1 1 1 1 1 0 0 0 -0 -1 -1
0 0 0 0 1 0 2 2 2 2 2 3 3 2 4 4 4 4 3 3 2 1 1 1 2 1 0 0 0 1 1 1 1 1 1 1 1 1 1 0 0 0 -1
0 0 0 0 1 3 3 2 2 2 3 3 5 4 3 4 3 5 4 5 4 4 4 3 4 2 1 1 1 1 1 1 1 1 2 1 2 3 1 0 -1 0 0
0 0 0 0 1 2 3 5 5 4 2 3 3 4 4 4 4 6 3 3 -0 3 8 6 5 2 1 2 1 1 1 1 1 2 2 3 2 1 1 1 -0 0 0
0 0 0 0 1 1 3 5 6 5 4 3 3 4 5 4 3 5 5 5 4 1 2 4 5 4 3 3 3 7 4 1 2 2 2 2 3 1 1 1 1 1 1
0 0 0 0 1 1 2 1 5 5 6 5 5 4 4 3 3 3 4 4 5 2 3 5 5 4 5 6 8 8 8 10 7 3 3 2 3 2 1 1 0 -0 -1
0 0 0 0 0 1 2 2 3 4 4 5 5 7 5 4 3 3 4 4 3 3 5 7 7 8 6 6 3 2 2 2 2 5 3 4 1 0 0 -0 0 -0 -0
0 0 0 0 0 0 1 2 4 7 6 6 7 7 6 5 5 5 4 4 4 5 4 5 5 5 5 3 2 2 2 2 3 4 1 0 1 0 0 0 0 -0 -0
Wind_Speed_500mb
29 38 45 50 54 54 49 45 41 40 41 38 38 31 24 26 30 32 33 34 32 31 30 26 23 22 22 23 26 27 28 27 26 27 27 27 25 26 25 24 26 11 16
38 39 44 50 54 55 51 47 43 41 42 40 36 30 25 29 32 34 34 33 31 28 25 24 23 22 23 25 26 25 23 22 23 22 23 25 23 22 22 22 21 13 16
40 43 46 48 52 55 52 50 46 45 45 42 36 29 27 31 34 35 34 33 30 28 25 24 23 22 23 22 22 21 20 18 18 18 24 12 7 18 20 20 20 18 18
41 45 49 48 49 50 49 47 46 48 48 44 36 29 29 34 36 36 35 32 30 28 26 24 23 22 21 20 20 18 17 16 15 14 15 6 6 11 15 17 19 18 17
40 44 48 49 49 48 47 45 48 52 52 46 39 31 30 34 35 35 33 32 29 27 25 23 22 22 21 19 18 15 13 11 10 10 4 3 3 4 7 9 13 17 17
37 41 44 48 49 48 46 43 47 52 53 48 42 35 34 35 35 34 32 30 28 25 23 20 19 18 18 17 16 14 11 9 5 3 4 2 3 9 3 3 7 9 12
35 38 44 47 48 47 46 43 45 52 55 50 45 39 38 39 37 35 33 30 28 25 21 19 17 15 14 12 10 9 7 5 4 9 8 5 6 6 6 4 1 2 5
33 37 43 49 47 46 45 46 45 51 55 53 49 43 41 42 40 37 34 31 29 26 23 20 16 14 11 9 7 4 2 2 2 9 9 9 11 8 7 9 9 8 5
32 36 39 50 51 49 47 46 47 48 53 56 54 48 46 44 41 39 37 33 30 27 24 19 16 13 11 9 8 7 5 6 5 9 6 8 16 9 9 11 14 14 14
32 37 39 50 53 54 53 50 48 48 51 54 57 53 50 47 45 41 38 35 32 28 24 21 17 15 12 10 10 9 9 9 7 12 10 9 11 10 11 14 17 19 19
34 39 39 42 47 52 49 54 51 49 53 54 55 56 54 51 48 45 41 38 34 31 26 23 19 15 13 13 12 12 13 9 14 11 8 16 12 11 13 15 18 20 21
34 38 37 40 42 45 44 46 55 54 56 58 61 61 58 50 38 36 44 42 38 34 29 25 21 19 17 14 15 16 10 12 11 11 9 12 13 14 16 18 21 21 21
34 38 40 43 44 45 44 43 48 47 51 55 60 62 63 51 39 41 34 46 43 39 33 29 24 21 18 18 17 16 14 10 8 8 11 10 13 16 17 18 18 17 18
40 41 43 45 48 50 46 47 45 49 49 50 63 67 59 56 55 45 34 32 42 36 36 29 21 23 21 18 18 16 14 11 10 10 13 12 14 15 17 18 19 16 16
38 43 47 48 53 59 66 50 52 56 53 52 56 67 68 60 61 59 49 38 33 30 30 30 27 23 19 18 17 17 15 17 17 14 14 15 16 15 15 18 19 18 17
32 44 43 50 56 62 68 73 69 69 57 62 57 70 75 71 64 60 59 52 37 33 28 26 25 24 21 19 22 23 22 21 20 18 18 18 18 20 19 19 19 19 19
21 29 39 46 50 63 66 70 77 63 64 58 63 75 80 80 77 70 58 53 56 40 42 33 32 29 26 23 24 24 25 27 24 21 18 19 22 23 15 17 18 19 21
21 26 31 38 45 60 66 68 66 63 59 58 57 62 84 83 82 76 70 62 50 56 45 39 28 25 24 23 22 22 22 25 23 22 17 20 15 8 9 3 6 14 16
30 34 36 39 45 52 57 60 59 59 64 60 59 61 76 84 86 81 63 57 58 54 49 43 40 31 29 25 26 26 28 30 29 20 18 6 9 19 3 3 14 23 33
42 42 43 46 54 54 56 56 54 59 66 66 69 66 74 84 86 78 60 55 52 54 51 54 50 48 36 30 27 28 30 33 38 29 26 16 17 23 2 6 11 19 27
47 53 53 55 59 67 58 56 55 66 68 73 81 73 71 84 80 75 77 63 70 53 68 62 60 56 52 36 26 28 26 30 39 33 32 20 25 17 20 27 7 15 22
42 49 54 60 63 72 67 76 78 73 63 64 60 69 74 76 75 83 85 84 94 88 72 72 66 64 55 40 30 32 27 18 23 32 36 24 32 27 15 14 13 33 46
47 45 49 54 51 60 77 69 65 59 60 61 64 66 77 77 68 76 88 102 90 85 83 69 65 59 46 33 39 30 13 12 14 26 34 29 27 22 30 36 40 48 50
53 52 51 54 65 61 60 69 75 75 75 79 69 64 65 72 71 74 87 99 89 79 74 68 68 57 49 36 39 40 36 24 6 16 26 39 37 42 41 45 46 52 63
52 52 54 56 64 65 60 65 76 83 80 70 62 59 67 62 69 74 77 80 81 79 72 63 61 59 51 51 53 57 51 56 35 33 45 43 38 39 44 50 48 63 68
48 50 48 51 60 60 59 61 78 85 85 71 65 57 54 56 62 73 72 79 76 68 60 62 64 65 64 64 61 66 66 70 78 61 70 73 82 71 59 54 54 62 65
Wind_Direction_500mb
166 178 176 169 168 173 175 175 174 169 168 161 154 148 144 148 151 147 144 143 142 142 141 140 139 135 128 122 117 115 111 104 99 90 83 78 77 77 75 76 79 51 59
165 179 180 175 172 175 177 180 180 179 176 168 160 155 152 154 155 151 150 152 152 149 143 140 139 134 127 125 125 118 114 108 100 96 94 79 74 76 78 81 85 86 78
163 175 180 179 178 179 181 184 185 186 182 175 168 164 161 162 158 157 158 159 157 148 147 144 139 137 130 127 126 122 116 110 106 92 82 105 94 80 79 82 83 81 75
167 175 182 180 182 183 184 187 189 190 186 181 177 174 170 168 164 162 161 161 157 153 150 149 145 139 135 134 132 128 121 111 104 96 71 132 129 76 81 77 77 73 77
168 177 186 183 184 184 185 186 190 191 187 185 184 182 181 176 171 169 166 163 160 156 155 153 151 147 147 145 139 133 127 116 104 96 143 108 124 274 79 74 77 68 62
170 175 188 187 186 187 187 189 188 193 192 191 189 189 188 184 179 175 172 170 163 162 160 157 156 153 155 156 156 152 150 144 145 120 214 338 79 220 215 87 79 63 62
176 178 188 190 191 192 191 192 193 195 197 197 197 198 193 189 185 181 179 176 171 170 168 167 163 161 160 161 164 171 169 173 151 254 258 256 266 264 259 271 1 26 40
182 180 193 192 195 199 199 199 200 200 201 203 203 206 201 194 189 188 187 183 179 178 178 176 174 174 173 174 177 189 210 261 234 253 267 265 263 267 272 282 292 299 315
186 184 195 197 197 202 206 207 207 209 208 209 209 209 206 201 197 195 193 190 188 187 185 184 186 191 193 204 212 216 230 251 226 261 288 304 285 279 276 292 295 300 296
196 192 195 201 203 203 206 210 211 213 214 216 212 211 209 205 203 203 201 196 194 193 193 192 197 205 212 225 242 254 252 254 265 263 287 269 296 283 278 291 300 305 301
206 203 198 200 200 202 205 212 211 215 215 216 219 215 209 208 208 208 207 204 201 199 201 202 205 215 227 240 250 261 262 252 246 255 251 278 301 299 295 297 301 303 300
217 211 209 204 207 201 200 207 211 214 216 216 215 217 213 209 212 209 214 208 205 206 207 211 215 224 235 242 271 258 251 241 246 241 243 283 293 292 296 299 299 299 301
228 221 215 211 209 206 206 206 205 208 212 215 214 210 210 211 212 213 216 212 209 209 211 217 222 234 247 242 245 240 238 241 242 252 252 296 302 307 310 304 296 296 303
227 226 221 217 212 213 209 211 208 206 207 210 213 213 208 209 213 212 213 217 218 216 214 215 223 232 247 247 235 234 240 230 244 245 264 291 301 307 310 307 299 293 294
236 229 227 221 227 227 213 215 211 210 211 211 214 216 214 215 217 216 213 212 219 218 224 221 224 239 244 237 228 233 236 246 252 259 268 284 289 292 297 307 308 299 292
250 238 234 230 236 236 233 217 223 218 212 212 213 219 219 220 223 220 219 220 218 218 224 232 232 236 239 240 241 242 251 255 266 272 284 281 279 277 283 299 303 306 299
263 242 233 237 230 241 242 230 229 225 220 218 216 222 225 224 224 223 222 223 228 229 225 233 245 249 246 245 254 255 259 265 271 281 291 292 285 277 277 298 311 330 313
278 256 253 241 236 239 239 241 229 225 223 222 223 223 228 227 227 228 228 229 226 234 243 248 244 248 252 253 256 260 267 273 275 276 290 309 283 234 97 104 24 18 4
291 285 278 258 242 238 245 238 232 228 228 223 222 224 230 229 229 228 227 232 235 241 242 239 243 242 244 250 260 264 266 270 275 271 266 285 164 160 187 47 89 37 23
284 278 272 272 262 251 245 242 231 226 227 224 224 223 227 232 231 231 229 240 249 255 247 248 249 252 250 248 249 257 266 270 275 262 256 235 202 182 164 267 271 329 351
280 277 273 269 267 258 240 235 233 230 227 228 223 225 225 230 227 224 231 232 254 251 259 255 252 248 251 240 251 263 264 267 264 256 237 224 207 212 295 298 264 321 326
285 282 274 274 267 260 242 246 246 243 230 228 226 226 228 230 227 223 223 219 224 238 238 252 254 247 246 241 246 252 246 254 267 237 231 219 234 259 290 319 354 327 326
287 280 282 275 273 277 251 241 237 232 232 228 225 225 229 229 225 222 222 223 230 234 244 241 243 240 224 221 226 230 219 236 255 235 247 237 230 261 278 288 319 320 319
285 281 278 273 271 274 275 244 235 229 226 230 227 229 226 230 220 225 222 224 230 233 237 241 244 234 224 215 211 216 213 213 213 272 256 260 254 275 294 294 302 315 321
304 287 278 274 269 269 261 254 235 236 234 234 230 225 232 230 224 226 224 222 228 232 239 237 242 235 239 232 236 237 222 238 225 277 281 266 262 284 289 299 294 307 317
310 301 289 276 270 268 265 248 238 228 232 227 228 222 220 217 217 220 218 220 222 228 232 239 243 247 245 250 253 250 249 241 241 261 272 270 276 281 284 291 292 308 308
Wind_Speed_850mb
29 38 45 50 54 54 49 45 41 40 41 38 38 31 24 26 30 32 33 34 32 31 30 26 23 22 22 23 26 27 28 27 26 27 27 27 25 26 25 24 26 11 16
38 39 44 50 54 55 51 47 43 41 42 40 36 30 25 29 32 34 34 33 31 28 25 24 23 22 23 25 26 25 23 22 23 22 23 25 23 22 22 22 21 13 16
40 43 46 48 52 55 52 50 46 45 45 42 36 29 27 31 34 35 34 33 30 28 25 24 23 22 23 22 22 21 20 18 18 18 24 12 7 18 20 20 20 18 18
41 45 49 48 49 50 49 47 46 48 48 44 36 29 29 34 36 36 35 32 30 28 26 24 23 22 21 20 20 18 17 16 15 14 15 6 6 11 15 17 19 18 17
40 44 48 49 49 48 47 45 48 52 52 46 39 31 30 34 35 35 33 32 29 27 25 23 22 22 21 19 18 15 13 11 10 10 4 3 3 4 7 9 13 17 17
37 41 44 48 49 48 46 43 47 52 53 48 42 35 34 35 35 34 32 30 28 25 23 20 19 18 18 17 16 14 11 9 5 3 4 2 3 9 3 3 7 9 12
35 38 44 47 48 47 46 43 45 52 55 50 45 39 38 39 37 35 33 30 28 25 21 19 17 15 14 12 10 9 7 5 4 9 8 5 6 6 6 4 1 2 5
33 37 43 49 47 46 45 46 45 51 55 53 49 43 41 42 40 37 34 31 29 26 23 20 16 14 11 9 7 4 2 2 2 9 9 9 11 8 7 9 9 8 5
32 36 39 50 51 49 47 46 47 48 53 56 54 48 46 44 41 39 37 33 30 27 24 19 16 13 11 9 8 7 5 6 5 9 6 8 16 9 9 11 14 14 14
32 37 39 50 53 54 53 50 48 48 51 54 57 53 50 47 45 41 38 35 32 28 24 21 17 15 12 10 10 9 9 9 7 12 10 9 11 10 11 14 17 19 19
34 39 39 42 47 52 49 54 51 49 53 54 55 56 54 51 48 45 41 38 34 31 26 23 19 15 13 13 12 12 13 9 14 11 8 16 12 11 13 15 18 20 21
34 38 37 40 42 45 44 46 55 54 56 58 61 61 58 50 38 36 44 42 38 34 29 25 21 19 17 14 15 16 10 12 11 11 9 12 13 14 16 18 21 21 21
34 38 40 43 44 45 44 43 48 47 51 55 60 62 63 51 39 41 34 46 43 39 33 29 24 21 18 18 17 16 14 10 8 8 11 10 13 16 17 18 18 17 18
40 41 43 45 48 50 46 47 45 49 49 50 63 67 59 56 55 45 34 32 42 36 36 29 21 23 21 18 18 16 14 11 10 10 13 12 14 15 17 18 19 16 16
38 43 47 48 53 59 66 50 52 56 53 52 56 67 68 60 61 59 49 38 33 30 30 30 27 23 19 18 17 17 15 17 17 14 14 15 16 15 15 18 19 18 17
32 44 43 50 56 62 68 73 69 69 57 62 57 70 75 71 64 60 59 52 37 33 28 26 25 24 21 19 22 23 22 21 20 18 18 18 18 20 19 19 19 19 19
21 29 39 46 50 63 66 70 77 63 64 58 63 75 80 80 77 70 58 53 56 40 42 33 32 29 26 23 24 24 25 27 24 21 18 19 22 23 15 17 18 19 21
21 26 31 38 45 60 66 68 66 63 59 58 57 62 84 83 82 76 70 62 50 56 45 39 28 25 24 23 22 22 22 25 23 22 17 20 15 8 9 3 6 14 16
30 34 36 39 45 52 57 60 59 59 64 60 59 61 76 84 86 81 63 57 58 54 49 43 40 31 29 25 26 26 28 30 29 20 18 6 9 19 3 3 14 23 33
42 42 43 46 54 54 56 56 54 59 66 66 69 66 74 84 86 78 60 55 52 54 51 54 50 48 36 30 27 28 30 33 38 29 26 16 17 23 2 6 11 19 27
47 53 53 55 59 67 58 56 55 66 68 73 81 73 71 84 80 75 77 63 70 53 68 62 60 56 52 36 26 28 26 30 39 33 32 20 25 17 20 27 7 15 22
42 49 54 60 63 72 67 76 78 73 63 64 60 69 74 76 75 83 85 84 94 88 72 72 66 64 55 40 30 32 27 18 23 32 36 24 32 27 15 14 13 33 46
47 45 49 54 51 60 77 69 65 59 60 61 64 66 77 77 68 76 88 102 90 85 83 69 65 59 46 33 39 30 13 12 14 26 34 29 27 22 30 36 40 48 50
53 52 51 54 65 61 60 69 75 75 75 79 69 64 65 72 71 74 87 99 89 79 74 68 68 57 49 36 39 40 36 24 6 16 26 39 37 42 41 45 46 52 63
52 52 54 56 64 65 60 65 76 83 80 70 62 59 67 62 69 74 77 80 81 79 72 63 61 59 51 51 53 57 51 56 35 33 45 43 38 39 44 50 48 63 68
48 50 48 51 60 60 59 61 78 85 85 71 65 57 54 56 62 73 72 79 76 68 60 62 64 65 64 64 61 66 66 70 78 61 70 73 82 71 59 54 54 62 65
Wind_Direction_850mb
166 178 176 169 168 173 175 175 174 169 168 161 154 148 144 148 151 147 144 143 142 142 141 140 139 135 128 122 117 115 111 104 99 90 83 78 77 77 75 76 79 51 59
165 179 180 175 172 175 177 180 180 179 176 168 160 155 152 154 155 151 150 152 152 149 143 140 139 134 127 125 125 118 114 108 100 96 94 79 74 76 78 81 85 86 78
163 175 180 179 178 179 181 184 185 186 182 175 168 164 161 162 158 157 158 159 157 148 147 144 139 137 130 127 126 122 116 110 106 92 82 105 94 80 79 82 83 81 75
167 175 182 180 182 183 184 187 189 190 186 181 177 174 170 168 164 162 161 161 157 153 150 149 145 139 135 134 132 128 121 111 104 96 71 132 129 76 81 77 77 73 77
168 177 186 183 184 184 185 186 190 191 187 185 184 182 181 176 171 169 166 163 160 156 155 153 151 147 147 145 139 133 127 116 104 96 143 108 124 274 79 74 77 68 62
170 175 188 187 186 187 187 189 188 193 192 191 189 189 188 184 179 175 172 170 163 162 160 157 156 153 155 156 156 152 150 144 145 120 214 338 79 220 215 87 79 63 62
176 178 188 190 191 192 191 192 193 195 197 197 197 198 193 189 185 181 179 176 171 170 168 167 163 161 160 161 164 171 169 173 151 254 258 256 266 264 259 271 1 26 40
182 180 193 192 195 199 199 199 200 200 201 203 203 206 201 194 189 188 187 183 179 178 178 176 174 174 173 174 177 189 210 261 234 253 267 265 263 267 272 282 292 299 315
186 184 195 197 197 202 206 207 207 209 208 209 209 209 206 201 197 195 193 190 188 187 185 184 186 191 193 204 212 216 230 251 226 261 288 304 285 279 276 292 295 300 296
196 192 195 201 203 203 206 210 211 213 214 216 212 211 209 205 203 203 201 196 194 193 193 192 197 205 212 225 242 254 252 254 265 263 287 269 296 283 278 291 300 305 301
206 203 198 200 200 202 205 212 211 215 215 216 219 215 209 208 208 208 207 204 201 199 201 202 205 215 227 240 250 261 262 252 246 255 251 278 301 299 295 297 301 303 300
217 211 209 204 207 201 200 207 211 214 216 216 215 217 213 209 212 209 214 208 205 206 207 211 215 224 235 242 271 258 251 241 246 241 243 283 293 292 296 299 299 299 301
228 221 215 211 209 206 206 206 205 208 212 215 214 210 210 211 212 213 216 212 209 209 211 217 222 234 247 242 245 240 238 241 242 252 252 296 302 307 310 304 296 296 303
227 226 221 217 212 213 209 211 208 206 207 210 213 213 208 209 213 212 213 217 218 216 214 215 223 232 247 247 235 234 240 230 244 245 264 291 301 307 310 307 299 293 294
236 229 227 221 227 227 213 215 211 210 211 211 214 216 214 215 217 216 213 212 219 218 224 221 224 239 244 237 228 233 236 246 252 259 268 284 289 292 297 307 308 299 292
250 238 234 230 236 236 233 217 223 218 212 212 213 219 219 220 223 220 219 220 218 218 224 232 232 236 239 240 241 242 251 255 266 272 284 281 279 277 283 299 303 306 299
263 242 233 237 230 241 242 230 229 225 220 218 216 222 225 224 224 223 222 223 228 229 225 233 245 249 246 245 254 255 259 265 271 281 291 292 285 277 277 298 311 330 313
278 256 253 241 236 239 239 241 229 225 223 222 223 223 228 227 227 228 228 229 226 234 243 248 244 248 252 253 256 260 267 273 275 276 290 309 283 234 97 104 24 18 4
291 285 278 258 242 238 245 238 232 228 228 223 222 224 230 229 229 228 227 232 235 241 242 239 243 242 244 250 260 264 266 270 275 271 266 285 164 160 187 47 89 37 23
284 278 272 272 262 251 245 242 231 226 227 224 224 223 227 232 231 231 229 240 249 255 247 248 249 252 250 248 249 257 266 270 275 262 256 235 202 182 164 267 271 329 351
280 277 273 269 267 258 240 235 233 230 227 228 223 225 225 230 227 224 231 232 254 251 259 255 252 248 251 240 251 263 264 267 264 256 237 224 207 212 295 298 264 321 326
285 282 274 274 267 260 242 246 246 243 230 228 226 226 228 230 227 223 223 219 224 238 238 252 254 247 246 241 246 252 246 254 267 237 231 219 234 259 290 319 354 327 326
287 280 282 275 273 277 251 241 237 232 232 228 225 225 229 229 225 222 222 223 230 234 244 241 243 240 224 221 226 230 219 236 255 235 247 237 230 261 278 288 319 320 319
285 281 278 273 271 274 275 244 235 229 226 230 227 229 226 230 220 225 222 224 230 233 237 241 244 234 224 215 211 216 213 213 213 272 256 260 254 275 294 294 302 315 321
304 287 278 274 269 269 261 254 235 236 234 234 230 225 232 230 224 226 224 222 228 232 239 237 242 235 239 232 236 237 222 238 225 277 281 266 262 284 289 299 294 307 317
310 301 289 276 270 268 265 248 238 228 232 227 228 222 220 217 217 220 218 220 222 228 232 239 243 247 245 250 253 250 249 241 241 261 272 270 276 281 284 291 292 308 308